TOURFACTS.DK  
Stats and Facts from Tour de France.

Tour de France 2018 starts in 287 days
  Riders   Stages   Teams   Summits   Yearly  


 
Search by year

 2017 - St. 21:  14824 starters.
  5131 different riders.
  634 teams.
  2232 stages.
  454 restdays.
  439589.60 km.
  5653 abandonnees.


Top 3
Christopher Froome86:20:55
Rigoberto Uran86:21:49
Romain Bardet86:23:15
Warren Barguil169 pt.
Primoz Roglic80 pt.
Thomas De Gendt64 pt.
Michael Matthews359 pt.
André Greipel234 pt.
Edvald Boasson Hagen220 pt.
Simon Yates86:27:09
Louis Meintjes86:29:15
Emanuel Buchmann86:54:16
Facts from Tour de France 2016
  |   Stages.  |   Stage winners.  |   Days in yellow  |   Average speed.  |   Route.  |   Teams.  |   All riders.  |   Rookies.  |   Withdrawls.  |  

  |   GC.  |   Polka  |   Green  |   White  |   Summits. (In tour)  |   Summits. (Points)  |   Miscellaneous.  |  

Stage 8 on 09 - 07 - 2016
         Owning:    Christopher Froome      Rafal Majka      Mark Cavendish      Adam Yates  

Pick a stage:  1 2 3 4 5 6 7 8 9 10 11 12 13 14 15 16 17 18 19 20 21
  PauBagnères-de-Luchon | Dist: 183.00 km.
Cat: HCol du TourmaletFRAThibaut Pinot
25 points
 
Cat: 2La Hourquette d'AncizanFRAThibaut Pinot
5 points
 
Cat: 1Col de Val Louron-AzetNEDWout Poels
10 points
 
Cat: 1Col de PeyresourdeKENChristopher Froome
10 points
 

Average speed for all riders in stage:  33,893 km./hr.
    Place:Name:Team:Time:Km/h:
KENChristopher FroomeGBRSky Procycling04:57:33  +  00:00:00=36,901 
ENGDaniel MartinBELEtixx - Quick Step04:57:46  +  00:00:13=36,875 
ESPJoaquim RodriguezRUSTeam Katusha04:57:46  +  00:00:13=36,875 
4 FRARomain BardetFRAAg2r La Mondiale04:57:46  +  00:00:13=36,875 
5 CZERoman KreuzigerRUSTinkoff04:57:46  +  00:00:13=36,875 
6 ITAFabio AruKAZAstana Pro Team04:57:46  +  00:00:13=36,875 
7 ENGAdam YatesAUSORICA BikeExchange04:57:46  +  00:00:13=36,875 
8 ESPAlejandro ValverdeESPMovistar Team04:57:46  +  00:00:13=36,875 
9 NEDBauke MollemaUSATrek – Segafredo04:57:46  +  00:00:13=36,875 
10 AUSRichie PorteUSABMC Racing Team04:57:46  +  00:00:13=36,875 
11 COLNairo QuintanaESPMovistar Team04:57:46  +  00:00:13=36,875 
12 USATejay Van GarderenUSABMC Racing Team04:57:46  +  00:00:13=36,875 
13 RSALouis MeintjesITALampre-Merida04:57:46  +  00:00:13=36,875 
14 COLSergio Luis HenaoGBRSky Procycling04:57:46  +  00:00:13=36,875 
15 GEREmanuel BuchmannDEUBora-Argon 1804:59:14  +  00:01:41=36,694 
16 FRAWarren BarguilDEUTeam Giant Alpecin04:59:14  +  00:01:41=36,694 
17 ESPAlberto ContadorRUSTinkoff04:59:14  +  00:01:41=36,694 
18 COLJarlinson Pantano GomezCHEIAM Cycling04:59:14  +  00:01:41=36,694 
19 WALGeraint ThomasGBRSky Procycling04:59:14  +  00:01:41=36,694 
20 ESPMikel NieveGBRSky Procycling04:59:14  +  00:01:41=36,694 
21 ITADomenico PozzovivoFRAAg2r La Mondiale04:59:14  +  00:01:41=36,694 
22 LUXFränk SchleckUSATrek – Segafredo04:59:14  +  00:01:41=36,694 
23 BELJurgen Van Den BroeckRUSTeam Katusha04:59:14  +  00:01:41=36,694 
24 FRAPierre RollandUSATeam Cannondale Drapac04:59:18  +  00:01:45=36,686 
25 SUIJakob FuglsangKAZAstana Pro Team04:59:18  +  00:01:45=36,686 
26 NEDWilco KeldermanNLDTeam Lotto NL - Jumbo04:59:18  +  00:01:45=36,686 
27 SUISébastien ReichenbachFRAFDJ05:00:28  +  00:02:55=36,543 
28 ITADamiano CarusoUSABMC Racing Team05:01:43  +  00:04:10=36,392 
29 NZLGeorge BennettNLDTeam Lotto NL - Jumbo05:01:45  +  00:04:12=36,388 
30 URSTanel KangertKAZAstana Pro Team05:01:45  +  00:04:12=36,388 
31 ESPJon Izaguirre InsaustiESPMovistar Team05:01:45  +  00:04:12=36,388 
32 ARGEduardo SepulvedaFRAFortuneo - Vital Concept05:03:04  +  00:05:31=36,230 
33 FRAThomas VoecklerFRADirect Energie05:07:51  +  00:10:18=35,667 
34 NEDLaurens ten DamDEUTeam Giant Alpecin05:07:51  +  00:10:18=35,667 
35 ESPHaimar ZubeldiaUSATrek – Segafredo05:07:51  +  00:10:18=35,667 
36 ESPMikel Landa MeanaGBRSky Procycling05:07:51  +  00:10:18=35,667 
37 POLRafal MajkaRUSTinkoff05:08:59  +  00:11:26=35,536 
38 NEDWout PoelsGBRSky Procycling05:08:59  +  00:11:26=35,536 
39 FRAAlexis VuillermozFRAAg2r La Mondiale05:10:07  +  00:12:34=35,406 
40 SUISteve MorabitoFRAFDJ05:10:58  +  00:13:25=35,309 
41 RUSIlnur ZakarinRUSTeam Katusha05:10:58  +  00:13:25=35,309 
42 POLBartosz HuzarskiDEUBora-Argon 1805:10:58  +  00:13:25=35,309 
43 FRAAmaël MoinardUSABMC Racing Team05:10:58  +  00:13:25=35,309 
44 USAPeter StetinaUSATrek – Segafredo05:10:58  +  00:13:25=35,309 
45 ESPRubén PlazaAUSORICA BikeExchange05:10:58  +  00:13:25=35,309 
46 ESPDaniel NavarroFRACofidis – Solutions Crédits05:10:58  +  00:13:25=35,309 
47 AUTGeorg PreidlerDEUTeam Giant Alpecin05:10:58  +  00:13:25=35,309 
48 GERTony MartinBELEtixx - Quick Step05:10:58  +  00:13:25=35,309 
49 SUIMathias FrankCHEIAM Cycling05:10:58  +  00:13:25=35,309 
50 HRVRobert KiserlovskiRUSTinkoff05:10:58  +  00:13:25=35,309 
51 FRAThibaut PinotFRAFDJ05:13:52  +  00:16:19=34,983 
52 RSADaryl ImpeyAUSORICA BikeExchange05:13:52  +  00:16:19=34,983 
53 NEDTom DumoulinDEUTeam Giant Alpecin05:16:10  +  00:18:37=34,729 
54 ESPGorka Izaguirre InsaustiESPMovistar Team05:18:27  +  00:20:54=34,480 
55 PORNelson OliveiraESPMovistar Team05:18:27  +  00:20:54=34,480 
56 FRAFabrice JeandesbozFRADirect Energie05:18:57  +  00:21:24=34,425 
57 KAZAlexey LutsenkoKAZAstana Pro Team05:20:06  +  00:22:33=34,302 
58 ESPAlberto LosadaRUSTeam Katusha05:21:42  +  00:24:09=34,131 
59 NEDDylan Van BaarleUSATeam Cannondale Drapac05:22:47  +  00:25:14=34,017 
60 NEDStef ClementCHEIAM Cycling05:23:15  +  00:25:42=33,968 
61 UKRAndriy GrivkoKAZAstana Pro Team05:23:15  +  00:25:42=33,968 
62 DENChris Anker SørensenFRAFortuneo - Vital Concept05:23:15  +  00:25:42=33,968 
63 FRAAnthony RouxFRAFDJ05:23:15  +  00:25:42=33,968 
64 SUIMartin ElmigerCHEIAM Cycling05:23:15  +  00:25:42=33,968 
65 ESPLuis Angel MateFRACofidis – Solutions Crédits05:23:15  +  00:25:42=33,968 
66 COLWinner AnaconaESPMovistar Team05:23:15  +  00:25:42=33,968 
67 SUIMichael SchärUSABMC Racing Team05:23:15  +  00:25:42=33,968 
68 AUSRohan DennisUSABMC Racing Team05:23:15  +  00:25:42=33,968 
69 FRAJulian AlaphilippeBELEtixx - Quick Step05:23:15  +  00:25:42=33,968 
70 BELOliver NaesenCHEIAM Cycling05:23:15  +  00:25:42=33,968 
71 FRAMickaël CherelFRAAg2r La Mondiale05:23:15  +  00:25:42=33,968 
72 SLOJan PolancITALampre-Merida05:23:15  +  00:25:42=33,968 
73 AUSSimon GerransAUSORICA BikeExchange05:23:15  +  00:25:42=33,968 
74 FRAArnold JeannessonFRACofidis – Solutions Crédits05:23:15  +  00:25:42=33,968 
75 AUSLuke DurbridgeAUSORICA BikeExchange05:23:15  +  00:25:42=33,968 
76 FRATony GallopinBELLotto Soudal05:23:15  +  00:25:42=33,968 
77 FRASylvain ChavanelFRADirect Energie05:23:15  +  00:25:42=33,968 
78 ITAPaolo TiralongoKAZAstana Pro Team05:23:15  +  00:25:42=33,968 
79 AUTPatrick KonradDEUBora-Argon 1805:23:15  +  00:25:42=33,968 
80 ITAVincenzo NibaliKAZAstana Pro Team05:23:15  +  00:25:42=33,968 
81 HRVKristijan DurasekITALampre-Merida05:23:15  +  00:25:42=33,968 
82 DENMichael ValgrenRUSTinkoff05:23:15  +  00:25:42=33,968 
83 IRLChristopher Juul JensenAUSORICA BikeExchange05:23:15  +  00:25:42=33,968 
84 ERIDaniel TeklehaimanotZAFDimension Data05:23:15  +  00:25:42=33,968 
85 CZEJan BártaDEUBora-Argon 1805:23:15  +  00:25:42=33,968 
86 BELGreg Van AvermaetUSABMC Racing Team05:23:15  +  00:25:42=33,968 
87 GERMarcus BurghardtUSABMC Racing Team05:23:15  +  00:25:42=33,968 
88 LUXBen GastauerFRAAg2r La Mondiale05:23:15  +  00:25:42=33,968 
89 FRARomain SicardFRADirect Energie05:23:15  +  00:25:42=33,968 
90 PORRui CostaITALampre-Merida05:23:15  +  00:25:42=33,968 
91 ESPLuis León SánchezKAZAstana Pro Team05:23:27  +  00:25:54=33,947 
92 ESPDaniel MorenoESPMovistar Team05:23:27  +  00:25:54=33,947 
93 BELThomas De GendtBELLotto Soudal05:27:05  +  00:29:32=33,569 
94 FRAArthur VichotFRAFDJ05:30:21  +  00:32:48=33,237 
95 ITACesare BenedettiDEUBora-Argon 1805:30:21  +  00:32:48=33,237 
96 SUIReto HollensteinCHEIAM Cycling05:30:21  +  00:32:48=33,237 
97 FRAJérémy RoyFRAFDJ05:30:21  +  00:32:48=33,237 
98 AUTMarco HallerRUSTeam Katusha05:32:16  +  00:34:43=33,046 
99 SUIFabian CancellaraUSATrek – Segafredo05:32:16  +  00:34:43=33,046 
100 NEDRoy CurversDEUTeam Giant Alpecin05:32:16  +  00:34:43=33,046 
101 NEDTom-Jelte SlagterUSATeam Cannondale Drapac05:32:16  +  00:34:43=33,046 
102 USALawson CraddockUSATeam Cannondale Drapac05:32:16  +  00:34:43=33,046 
103 SUIGregory RastUSATrek – Segafredo05:32:16  +  00:34:43=33,046 
104 GERSimon GeschkeDEUTeam Giant Alpecin05:32:16  +  00:34:43=33,046 
105 ESPMarkel IrizarUSATrek – Segafredo05:32:16  +  00:34:43=33,046 
106 SLOLuka PibernikITALampre-Merida05:32:16  +  00:34:43=33,046 
107 RSAReinardt Janse Van RensburgZAFDimension Data05:32:16  +  00:34:43=33,046 
108 ESPImanol ErvitiESPMovistar Team05:32:16  +  00:34:43=33,046 
109 BELJulien VermoteBELEtixx - Quick Step05:32:16  +  00:34:43=33,046 
110 BELMaarten WynantsNLDTeam Lotto NL - Jumbo05:32:16  +  00:34:43=33,046 
111 AUSMichael MatthewsAUSORICA BikeExchange05:32:16  +  00:34:43=33,046 
112 ESPJesus HerradaESPMovistar Team05:32:16  +  00:34:43=33,046 
113 FRAWilliam BonnetFRAFDJ05:32:16  +  00:34:43=33,046 
114 GERAndreas SchillingerDEUBora-Argon 1805:32:16  +  00:34:43=33,046 
115 USAAlex HowesUSATeam Cannondale Drapac05:32:16  +  00:34:43=33,046 
116 ENGIan StannardGBRSky Procycling05:32:16  +  00:34:43=33,046 
117 FRAAngelo TulikFRADirect Energie05:32:16  +  00:34:43=33,046 
118 FRAYohann GèneFRADirect Energie05:32:16  +  00:34:43=33,046 
119 FRABryan CoquardFRADirect Energie05:32:16  +  00:34:43=33,046 
120 BELJan BakelantsFRAAg2r La Mondiale05:32:16  +  00:34:43=33,046 
121 BELSerge PauwelsZAFDimension Data05:32:16  +  00:34:43=33,046 
122 FRANicolas EdetFRACofidis – Solutions Crédits05:32:16  +  00:34:43=33,046 
123 POLMaciej BodnarRUSTinkoff05:32:16  +  00:34:43=33,046 
124 ITAMatteo TosattoRUSTinkoff05:32:16  +  00:34:43=33,046 
125 CZEPetr VakocBELEtixx - Quick Step05:32:16  +  00:34:43=33,046 
126 ERINatnael Teweldemedhin BerhaneZAFDimension Data05:32:16  +  00:34:43=33,046 
127 GERPaul MartensNLDTeam Lotto NL - Jumbo05:32:16  +  00:34:43=33,046 
128 GERPaul VossDEUBora-Argon 1805:32:16  +  00:34:43=33,046 
129 AUSMathew HaymanAUSORICA BikeExchange05:32:16  +  00:34:43=33,046 
130 SUIMichael AlbasiniAUSORICA BikeExchange05:32:16  +  00:34:43=33,046 
131 NEDTimo RoosenNLDTeam Lotto NL - Jumbo05:32:16  +  00:34:43=33,046 
132 FRAChristophe LaporteFRACofidis – Solutions Crédits05:32:16  +  00:34:43=33,046 
133 FRAJérôme CoppelCHEIAM Cycling05:32:16  +  00:34:43=33,046 
134 BLRVasil KiryienkaGBRSky Procycling05:32:16  +  00:34:43=33,046 
135 URSRamunas NavardauskasUSATeam Cannondale Drapac05:32:16  +  00:34:43=33,046 
136 NOREdvald Boasson HagenZAFDimension Data05:32:16  +  00:34:43=33,046 
137 SVKPeter SaganRUSTinkoff05:32:16  +  00:34:43=33,046 
138 FRABrice FeilluFRAFortuneo - Vital Concept05:32:16  +  00:34:43=33,046 
139 ESPAngel ViciosoRUSTeam Katusha05:32:16  +  00:34:43=33,046 
140 JPNYukiya ArashiroITALampre-Merida05:32:16  +  00:34:43=33,046 
141 FRAJérôme CousinFRACofidis – Solutions Crédits05:32:16  +  00:34:43=33,046 
142 BELIljo KeisseBELEtixx - Quick Step05:36:57  +  00:39:24=32,586 
143 ITAFabio SabatiniBELEtixx - Quick Step05:36:57  +  00:39:24=32,586 
144 FRAGeoffrey SoupeFRACofidis – Solutions Crédits05:36:57  +  00:39:24=32,586 
145 GERMarcel SiebergBELLotto Soudal05:36:57  +  00:39:24=32,586 
146 BELEdward TheunsUSATrek – Segafredo05:36:57  +  00:39:24=32,586 
147 FRACyril LemoineFRACofidis – Solutions Crédits05:36:57  +  00:39:24=32,586 
148 ITAOscar GattoRUSTinkoff05:36:57  +  00:39:24=32,586 
149 NORSondre Holst EngerCHEIAM Cycling05:36:57  +  00:39:24=32,586 
150 GERMarcel KittelBELEtixx - Quick Step05:36:57  +  00:39:24=32,586 
151 GERRobert WagnerNLDTeam Lotto NL - Jumbo05:36:57  +  00:39:24=32,586 
152 GERAndré GreipelBELLotto Soudal05:36:57  +  00:39:24=32,586 
153 AUSAdam HansenBELLotto Soudal05:36:57  +  00:39:24=32,586 
154 NORAlexander KristoffRUSTeam Katusha05:36:57  +  00:39:24=32,586 
155 CANAntoine DuchesneFRADirect Energie05:36:57  +  00:39:24=32,586 
156 ETHTsgabu Gebremaryan GrmayITALampre-Merida05:36:57  +  00:39:24=32,586 
157 FRACédric PineauFRAFDJ05:36:57  +  00:39:24=32,586 
158 ITAMatteo BonoITALampre-Merida05:36:57  +  00:39:24=32,586 
159 BRAMaximilano RichezeBELEtixx - Quick Step05:36:57  +  00:39:24=32,586 
160 WALLuke RoweGBRSky Procycling05:36:57  +  00:39:24=32,586 
161 BELSam BennettDEUBora-Argon 1805:36:57  +  00:39:24=32,586 
162 AUSLeigh HowardCHEIAM Cycling05:36:57  +  00:39:24=32,586 
163 FRAMatthieu LadagnousFRAFDJ05:36:57  +  00:39:24=32,586 
164 NEDBert-Jan LindemanNLDTeam Lotto NL - Jumbo05:36:57  +  00:39:24=32,586 
165 ITAJacopo GuarnieriRUSTeam Katusha05:36:57  +  00:39:24=32,586 
166 ITADavide CimolaiITALampre-Merida05:36:57  +  00:39:24=32,586 
167 USABrent BookwalterUSABMC Racing Team05:36:57  +  00:39:24=32,586 
168 NORVegard BreenFRAFortuneo - Vital Concept05:36:57  +  00:39:24=32,586 
169 SLOKristjan KorenUSATeam Cannondale Drapac05:36:57  +  00:39:24=32,586 
170 SLOBorut BozicFRACofidis – Solutions Crédits05:36:57  +  00:39:24=32,586 
171 FRAAnthony DelaplaceFRAFortuneo - Vital Concept05:36:57  +  00:39:24=32,586 
172 FRAFlorian VachonFRAFortuneo - Vital Concept05:36:57  +  00:39:24=32,586 
173 FRAPierre-Luc PérichonFRAFortuneo - Vital Concept05:36:57  +  00:39:24=32,586 
174 NZLGregory HendersonBELLotto Soudal05:36:57  +  00:39:24=32,586 
175 BELJürgen RoelandtsBELLotto Soudal05:36:57  +  00:39:24=32,586 
176 FRA Alexis GougeardFRAAg2r La Mondiale05:36:57  +  00:39:24=32,586 
177 ITADiego RosaKAZAstana Pro Team05:36:57  +  00:39:24=32,586 
178 NEDAlbert TimmerDEUTeam Giant Alpecin05:36:57  +  00:39:24=32,586 
179 NEDRamon SinkeldamDEUTeam Giant Alpecin05:36:57  +  00:39:24=32,586 
180 BELSep VanmarckeNLDTeam Lotto NL - Jumbo05:36:57  +  00:39:24=32,586 
181 GERJohn DegenkolbDEUTeam Giant Alpecin05:36:57  +  00:39:24=32,586 
182 FRAArmindo FonsecaFRAFortuneo - Vital Concept05:36:57  +  00:39:24=32,586 
183 FRACyril GautierFRAAg2r La Mondiale05:36:57  +  00:39:24=32,586 
184 ENGDaniel McLayFRAFortuneo - Vital Concept05:36:57  +  00:39:24=32,586 
185 FRAAdrien PetitFRADirect Energie05:36:57  +  00:39:24=32,586 
186 AUSMark RenshawZAFDimension Data05:36:57  +  00:39:24=32,586 
187 NEDSebastian LangeveldUSATeam Cannondale Drapac05:36:57  +  00:39:24=32,586 
188 DENMatti BreschelUSATeam Cannondale Drapac05:36:57  +  00:39:24=32,586 
189 BELJens DebusschereBELLotto Soudal05:36:57  +  00:39:24=32,586 
190 BELJasper StuyvenUSATrek – Segafredo05:36:57  +  00:39:24=32,586 
191 FRASamuel DumoulinFRAAg2r La Mondiale05:36:57  +  00:39:24=32,586 
192 ENGStephen CummingsZAFDimension Data05:36:57  +  00:39:24=32,586 
193 DENLars BakBELLotto Soudal05:36:57  +  00:39:24=32,586 
194 NEDDylan GroenewegenNLDTeam Lotto NL - Jumbo05:36:57  +  00:39:24=32,586 
195 NZLShane ArchboldDEUBora-Argon 1805:36:57  +  00:39:24=32,586 
196 IOMMark CavendishZAFDimension Data05:36:57  +  00:39:24=32,586 
197 AUTBernhard EiselZAFDimension Data05:36:57  +  00:39:24=32,586 

Withdrawls: 1
 
Rider
Team
Reason
146  DENMichael MørkøvRUSTeam KatushaDid not finish

Todays birthdays.

1892  Fernand Bozzo
1905  Achille Viaene
1912  Albert Van Schendel
1930  Benigno Aspuru
1936  Guy Epaud
1937  Göran Karlsson
1941  Jorge Marine
1942  René Grelin
1948  Daniel Verplancke
1951  Giovanni Dalla Bona
1966  Didier Virvaleix
1971  Jérôme Bernard